Location: Fort Wayne
(41.1310°N, 85.1290°W)
Time: 10:57:06
(UTC-05:00)

Daily predictions for brighter satellites

Satellite Brightness Start Highest point End
(mag) Time Altitude Azimuth Time Altitude Azimuth Time Altitude Azimuth
Cosmos 1408 Rocket 4.4 18:04:21 10° SSW 18:08:43 55° W 18:13:04 10° N
Cosmos 2228 Rocket 3.1 18:10:47 10° N 18:15:14 89° ENE 18:19:41 10° S
Cosmos 389 Rocket 4.2 18:15:00 10° NNW 18:18:22 39° W 18:21:40 10° SSW
Cosmos 371 Rocket 3.3 18:16:43 10° SSW 18:21:30 75° ESE 18:26:19 10° NNE
Cosmos 540 Rocket 3.7 18:16:53 10° S 18:21:50 48° ESE 18:26:49 10° NNE
Cosmos 2346 Rocket 4.5 18:17:44 10° S 18:24:00 78° E 18:30:15 10° N
MSX 3.8 18:18:43 10° SSE 18:24:26 86° ENE 18:30:12 10° NNW
Cosmos 1844 Rocket 3.2 18:19:29 10° NNW 18:25:07 67° WSW 18:30:41 10° S
USA 215 3.6 18:20:43 10° E 18:26:52 45° NNE 18:33:02 10° NW
Cosmos 2151 3.2 18:23:23 10° SSE 18:27:25 47° E 18:31:28 10° NNE
SMAP 3.7 18:23:58 10° S 18:28:34 63° W 18:33:12 10° NNW
Meteor 1-28 Rocket 4.0 18:26:45 10° NE 18:30:04 30° E 18:33:21 10° SSE
Cosmos 1743 Rocket 4.1 18:27:57 10° SSW 18:32:23 65° W 18:36:51 10° N
Lacrosse 5 rocket 1.7 18:29:35 10° NNW 18:33:10 39° NE 18:36:54 10° ESE
Cosmos 1328 Rocket 4.3 18:30:54 10° NNW 18:35:17 57° W 18:39:37 10° S
Meteor 1-11 4.4 18:32:20 10° S 18:37:48 53° E 18:43:22 10° NNE
FREGAT/IRIS 4.2 18:36:47 10° ESE 18:38:51 17° ENE 18:40:55 10° NNE
Cosmos 44 Rocket 3.8 18:37:13 10° SW 18:42:19 63° NW 18:47:20 10° NNE
Cosmos 2360 Rocket 4.5 18:38:34 10° W 18:42:30 19° NW 18:46:26 10° N
Meteor 2-10 4.1 18:38:10 10° N 18:43:10 54° ENE 18:48:16 10° SSE
Cosmos 1515 Rocket 4.2 18:40:15 10° NNW 18:44:40 62° W 18:49:02 10° S
CZ-4 R/B 3.6 18:41:38 10° SSW 18:44:58 28° W 18:48:23 10° NW
Cosmos 1980 3.7 18:39:36 10° SSW 18:45:18 87° ESE 18:51:01 10° NNE
Cosmos 1151 Rocket 3.0 18:41:16 10° N 18:45:33 89° WNW 18:49:50 10° S
Cosmos 1328 4.1 18:45:03 10° SSW 18:48:58 69° W 18:52:55 10° N
SKYMED 2 3.5 18:45:43 10° NNE 18:50:05 82° E 18:54:25 10° S
Cosmos 1805 Rocket 4.0 18:47:13 10° SSE 18:51:22 39° E 18:55:32 10° NNE
Cosmos 1125 Rocket 3.7 18:47:14 10° NNW 18:52:27 76° WSW 18:57:37 10° SSE
METEOR-M 4.3 18:49:53 10° SE 18:55:00 49° ENE 19:00:08 10° N
DMSP B5D1-3 4.5 18:50:19 10° NNE 18:55:24 66° ESE 19:00:27 10° S
Transit 2A Rocket 4.4 18:53:51 10° NNW 18:58:11 73° ENE 19:02:29 10° SE
Lacrosse 5 4.0 18:56:16 10° NW 18:58:55 14° N 19:01:34 10° NNE
Spot 2 Rocket 4.3 18:56:59 10° ESE 19:01:10 27° ENE 19:05:22 10° N
Cosmos 2333 Rocket 2.8 18:56:46 10° SW 19:02:19 58° WNW 19:07:54 10° NNE
Abrixas 2.3 18:59:43 10° WSW 19:02:39 90° S 19:03:34 40° ENE
Cosmos 304 Rocket 3.8 18:58:00 10° S 19:02:42 56° ESE 19:06:42 14° NNE
SJ-6B 3.1 18:59:44 10° SE 19:03:37 45° ENE 19:07:34 10° N
CENTAUR R/B 4.0 18:59:50 10° WSW 19:05:23 32° NW 19:11:34 10° NNE
Lacrosse 4 Rocket 3.3 19:05:03 10° N 19:06:09 14° NNE 19:06:09 14° NNE
Cosmos 2219 Rocket 3.4 19:02:25 10° SW 19:07:43 41° WNW 19:13:02 10° N
Sich 1 3.4 19:06:49 10° SSE 19:10:59 41° E 19:13:25 22° NE
Cosmos 1703 3.1 19:07:17 10° S 19:11:09 64° E 19:14:26 14° NNE
Cosmos 1538 Rocket 4.3 19:06:29 10° S 19:11:30 47° ESE 19:14:48 21° NE
Cosmos 1184 Rocket 4.4 19:10:43 10° SSE 19:12:12 21° SE 19:12:12 21° SE
Cosmos 1626 2.2 19:10:26 10° S 19:14:03 51° E 19:15:27 32° NE
NOAA 12 4.0 19:09:32 10° SSE 19:14:45 79° ENE 19:20:02 10° N
Cosmos 2278 Rocket 2.9 19:11:19 10° NNW 19:16:53 57° WSW 19:22:24 10° S
Cosmos 1633 Rocket 3.4 19:12:49 10° SSE 19:16:58 42° E 19:18:22 32° NE
Cosmos 1455 2.4 19:17:31 10° N 19:24:27 13° SSE 19:24:53 10° SSE
Iridium 4 Rocket 3.9 19:18:11 10° SSE 19:21:25 32° ESE 19:21:25 32° ESE
Cosmos 1461 2.7 19:20:40 10° SSW 19:24:51 73° ESE 19:26:00 45° NE
Cosmos 2058 4.0 19:23:46 10° SSW 19:27:41 43° WNW 19:31:38 10° N
OTV 4 3.1 19:27:19 10° WSW 19:29:06 15° SSW 19:30:15 12° S
Cosmos 1340 Rocket 3.7 19:28:28 10° SSW 19:32:17 48° WNW 19:36:07 10° N
Aureole 2 Rocket 3.9 19:29:24 10° SW 19:32:54 40° WNW 19:35:57 15° N
COSMO-SKYMED 1 4.4 19:34:12 10° N 19:37:58 30° WNW 19:41:43 10° SW
Cosmos 1707 Rocket 3.7 19:35:44 10° NNW 19:40:04 73° W 19:44:22 10° S
Resurs 01 Rocket 1.5 19:40:43 62° ENE 19:40:44 62° ENE 19:45:09 10° N
Cosmos 2237 Rocket 3.5 19:36:19 10° SW 19:41:29 37° WNW 19:46:42 10° N
ALOS 2.1 19:41:58 10° SSE 19:46:37 78° ENE 19:51:18 10° N
Cosmos 2369 Rocket 4.1 19:42:30 10° N 19:43:53 15° NNE 19:43:53 15° NNE
SL-16 R/B 2.3 19:41:47 10° SSW 19:47:25 74° WNW 19:50:50 25° NNE
Cosmos 1356 Rocket 3.8 19:46:14 10° SSW 19:50:10 59° W 19:51:29 37° NNW
BREEZE-M DEB (TANK) 4.1 19:48:20 10° WNW 19:49:05 16° WNW 19:49:05 16° WNW
Cosmos 1666 Rocket 3.8 19:46:02 10° SSW 19:50:19 65° W 19:52:48 25° N
Cosmos 773 Rocket 3.8 19:50:52 10° SSW 19:56:01 79° ESE 19:56:27 72° NE
Cosmos 2297 4.3 19:52:47 10° NNW 19:58:22 56° WSW 20:03:56 10° S
Aureole 1 Rocket 3.7 19:55:55 10° SSW 20:01:05 82° ESE 20:03:16 44° NNE
USA 215 3.6 20:05:31 23° SSE 20:09:43 61° SW 20:16:13 10° NW
Lacrosse 5 rocket 3.3 20:09:04 10° WNW 20:12:13 24° SW 20:13:10 22° SSW
Lacrosse 5 4.5 20:40:48 10° NNW 20:41:08 11° NNW 20:41:08 11° NNW
USA 229 DEB 4.1 20:48:20 10° SW 20:54:38 59° WNW 20:54:38 59° WNW
USA 229 4.1 20:48:26 10° SW 20:54:41 59° WNW 20:54:41 59° WNW
